User: anonymous   Login
Location: Fisheating Creek Campgrounds
(26.9333°N, 81.3167°W)
Time: 07:22:51
(UTC-04:00)
Language:

NATO 3D Rocket - Orbit

View from above orbital plane
View from above orbital plane
View from above satellite
View from above satellite

Ground track
Ground track

The orbit data is extracted from the following two-line orbital elements,

1 15392U 84115B   15089.15265233  .00000201  00000-0  28535-4 0  9999
2 15392 021.4994 052.4718 1034777 244.3293 227.3319 12.45478392382942
Epoch (UTC): 30 March 2015 03:39:49
Eccentricity: 0.1034777
inclination: 21.4994°
perigee height: 670 km
apogee height: 2297 km
right ascension of ascending node: 52.4718°
argument of perigee: 244.3293°
revolutions per day: 12.45478392
mean anomaly at epoch: 227.3319°
orbit number at epoch: 38294

The dashed part of the orbit path shows where the satellite is in the earth's shadow,  

DLR